Regional Weather Roundup
Issued by NWS Green Bay, WI

Home | Current Version | Previous Version | Text Only | Print | Product List | Glossary On
Versions: 1 2 3 4 5 6 7 8 9 10 11 12 13 14 15 16 17 18 19 20 21 22 23 24 25 26 27 28 29 30 31 32 33 34 35 36 37 38 39 40 41 42 43 44 45 46 47 48 49 50
000
ASUS43 KGRB 021711
RWRGRB

NORTH-CENTRAL AND NORTHEAST WISCONSIN REGIONAL WEATHER ROUNDUP
NATIONAL WEATHER SERVICE GREEN BAY WI
1200 PM CDT WED SEP 02 2015

WIZ005-009-010>012-018-019-021800-
NORTH CENTRAL WISCONSIN

CITY           SKY/WX    TMP DP  RH WIND       PRES   REMARKS
IRONWOOD       CLOUDY    66  66 100 CALM      30.01F
MANITOWISH WTR DRIZZLE   67  67 100 SW9       30.06R
ARBOR VITAE    RAIN      67  65  93 CALM      30.06R
EAGLE RIVER    RAIN      67  65  93 N3        30.04S
LAND O LAKES   LGT RAIN  67  64  91 NE3       30.05F
RHINELANDER    LGT RAIN  69  64  84 N3        30.06R
PHILLIPS       LGT RAIN  67  65  94 CALM      30.04R
ANTIGO         CLOUDY    73  66  79 NE5       30.02S
TOMAHAWK       LGT RAIN  69  66  89 N3        30.03F
MERRILL        PTSUNNY   75  71  86 E3        30.01F
$$

WIZ013-073-021800-
NORTHEAST WISCONSIN

CITY           SKY/WX    TMP DP  RH WIND       PRES   REMARKS
IRON MOUNTAIN  CLOUDY    72  67  84 N8        29.99R
MARINETTE      PTSUNNY   81  70  69 E8        29.96R
OCONTO         PTSUNNY   86  76  71 W5        29.94F HX  95
$$

WIZ017-030-035>037-045-021800-
CENTRAL WISCONSIN

CITY           SKY/WX    TMP DP  RH WIND       PRES   REMARKS
MEDFORD        LGT RAIN  70  68  95 N5        30.02S
WAUSAU         PTSUNNY   81  70  69 NW6       29.98S
MOSINEE        PTSUNNY   81  72  74 W3        30.01S
MARSHFIELD     PTSUNNY   81  68  64 S5        29.99F
WISC RAPIDS    MOSUNNY   85  68  56 S8        29.99F
STEVENS POINT  MOSUNNY   81  68  64 S7        29.99F
WAUPACA        MOSUNNY   88  70  54 SW10      29.98F HX  92
SHAWANO        CLOUDY    85  72  65 W6        29.98S HX  91
CLINTONVILLE   PTSUNNY   82  70  65 W3        29.98S
WAUTOMA        SUNNY     86  69  56 SW9       29.99F HX  90
$$

WIZ038-039-048-051-021800-
FOX VALLEY

CITY           SKY/WX    TMP DP  RH WIND       PRES   REMARKS
NWS GREEN BAY  PTSUNNY   86  72  62 W3        29.97F HX  92
APPLETON       MOSUNNY   84  70  61 S7        29.98F
OSHKOSH        MOSUNNY   84  70  62 SW5       29.99S
FOND DU LAC    MOSUNNY   84  71  65 SW9       30.00S
$$

WIZ022-050-052-021800-
EAST CENTRAL WISCONSIN

CITY           SKY/WX    TMP DP  RH WIND       PRES   REMARKS
EPHRAIM        FAIR      83  74  75 W3        29.97S
STURGEON BAY   MOSUNNY   82  73  74 W7        29.99F
MANITOWOC      SUNNY     87  71  58 MISG      29.98F HX  93
SHEBOYGAN      SUNNY     86  70  58 W8        29.99F HX  90
$$

LMZ563-521-522-541>543-021800-
LAKESHORE

STATION/POSITION TIME  TEMP    WIND        PRES    VSBY  WAVE
                       AIR SEA DIR/SP/G                  HT/PER
                 (UTC) (F)     (DEG/KT/KT) (MB)    (MI)  (FT/S)
SHEBOYGAN LKSHOR 1700   76     170/ 12/ 14 1015.2F
KEWAUNEE LKSHORE 1600   62     160/  4/  5 1014.4S
ALGOMA MARINA    1614             CALM       N/A
NORTHPORT PIER   1600   66     150/  3/  6 1014.9S
N MID LAKE BUOY  1650   66 67  310/  2/  2 1014.9F         1
SISTER BAY LKSHO 1619   74      10/  8/  9   N/A
CHAMBERS ISLAND  1600   73     350/  4/  4 1014.9S
MENOMINEE LKSHOR 1600   72     150/  5/  6 1013.7S
$$



USA.gov is the U.S. government's official web portal to all federal, state and local government web resources and services.